Location: Unspecified
(0.0000°N, 0.0000°E)
Time: 13:51:24
(UTC+02:00)

DELTA 2 R/B (1) - Visible Passes

Search period start: 28 April 2015 00:00
Search period end: 08 May 2015 00:00
Orbit: 791 x 804 km, 39.6° (Epoch: 28 April)

Date Brightness Start Highest point End Pass type
(mag) Time Alt. Az. Time Alt. Az. Time Alt. Az.
28 Apr 5.3 07:03:10 10° NNW 07:08:07 33° NE 07:13:07 10° ESE visible
28 Apr 6.3 21:29:30 10° WNW 21:32:34 14° NW 21:35:21 10° N visible
29 Apr 5.4 06:32:37 10° NNW 06:37:23 30° NE 06:42:14 10° ESE visible
29 Apr 6.2 20:58:18 10° WNW 21:01:48 16° NW 21:05:05 10° N visible
30 Apr 5.5 06:02:07 10° NNW 06:06:40 26° NE 06:11:19 10° E visible
30 Apr 6.2 20:27:12 10° W 20:31:03 18° NW 20:34:43 10° N visible
01 May 5.6 05:33:54 19° N 05:35:56 24° NE 05:40:23 10° E visible
01 May 3.8 07:17:00 10° WNW 07:22:22 50° SW 07:27:44 10° SSE visible
02 May 5.9 05:06:38 19° ENE 05:06:38 19° ENE 05:09:23 10° E visible
02 May 3.6 06:47:32 17° WNW 06:51:40 56° SW 06:57:07 10° SE visible
03 May 3.5 06:20:09 57° W 06:20:58 64° SW 06:26:28 10° SE visible
04 May 4.6 05:52:35 36° SE 05:52:35 36° SE 05:55:49 10° SE visible
05 May 6.1 05:24:49 12° SE 05:24:49 12° SE 05:25:08 10° SE visible
05 May 5.4 07:05:41 12° SW 07:06:13 12° SW 07:08:07 10° SSW visible
06 May 5.7 06:37:41 11° SSW 06:37:41 11° SSW 06:38:03 10° S visible
